Location: C�mpuri de-Sus
(45.9500°N, 22.5500°E)
Time: 13:42:19
(UTC+00:00)

Cosmos 1459 Rocket - Pass Details

Date: 24 October 2021
Orbit: 937 x 1000 km, 83.0° (Epoch: 06 December)

Event Time Altitude Azimuth Distance (km) Brightness Sun altitude
Rises 18:15:22 0° 193° (SSW) 3,660 7.0 -29.6°
Reaches altitude 10° 18:17:53 10° 195° (SSW) 2,708 6.3 -30.0°
Maximum altitude 18:24:05 72° 280° (W) 1,008 4.1 -31.0°
Drops below altitude 10° 18:30:13 10° 5° (N) 2,684 6.4 -32.0°
Sets 18:32:43 0° 7° (N) 3,626 7.1 -32.5°
